Location: Greenwich
(51.4790°N, 0.0090°E)
Time: 07:26:04
(UTC+01:00)

Explorer 7 - Pass Details

Date: 24 April 2024
Orbit: 467 x 625 km, 50.3° (Epoch: 27 May)

Event Time Altitude Azimuth Distance (km) Brightness Sun altitude
Rises 15:39:06 0° 283° (WNW) 2,916 11.0 39.9°
Reaches altitude 10° 15:41:34 10° 275° (W) 2,001 10.4 39.5°
Maximum altitude 15:45:49 38° 208° (SSW) 953 9.6 39.0°
Drops below altitude 10° 15:49:57 10° 141° (SE) 1,943 9.7 38.4°
Sets 15:52:18 0° 133° (SE) 2,820 10.3 38.1°
